Sacramento International, CA

1:26 PM PDT on May 26, 2017 (GMT -0700)
Sacramento International

Weather History for KSMF - January, 2014

Change the Weather History Date:

Wednesday, January 15, 2014

  Actual Average Record
Temperature  
Mean Temperature 50 °F -  
Max Temperature 68 °F 53 °F 68 °F (2014)
Min Temperature 32 °F 40 °F 23 °F (1949)
Degree Days  
Heating Degree Days 15    
Moisture  
Dew Point 34 °F    
Average Humidity 66    
Maximum Humidity 100    
Minimum Humidity 26    
Precipitation  
Precipitation 0.00 in - - ()
Sea Level Pressure  
Sea Level Pressure 30.30 in    
Wind  
Wind Speed 2 mph (SW)    
Max Wind Speed 5 mph    
Max Gust Speed -    
Visibility 10 miles    
Events Fog    
Averages and records for this station are not official NWS values.
T = Trace of Precipitation, MM = Missing Value Source: NWS Daily Summary

Daily Weather History Graph

Daily Weather History Graph

Search for Another Location

Airport or City:

Trip Planner

Search our weather history database for the weather conditions in past years. The results will help you decide how hot, cold, wet, or windy it might be!

Date:

Astronomy

Jan. 15, 2014 Rise Set
Actual Time 7:22 AM PST 5:09 PM PST
Civil Twilight 6:53 AM PST 5:38 PM PST
Nautical Twilight 6:21 AM PST 6:10 PM PST
Astronomical Twilight 5:49 AM PST 6:42 PM PST
Moon 5:10 PM PST (1/15) 6:42 AM PST (1/15)
Length of Visible Light 10h 44m
Length of Day
9h 46m
Full, 100% of the Moon is Illuminated
Jan 15
Full
Jan 15
Full
Jan 23
Last Quarter
Jan 30
New
Feb 6
First Quarter

Hourly Weather History & Observations

Time (PST) Temp. Windchill Dew Point Humidity Pressure Visibility Wind Dir Wind Speed Gust Speed Precip Events Conditions
12:53 AM 39.0 °F 36.8 °F 33.1 °F 79% 30.35 in 9.0 mi SE 3.5 mph - N/A   Clear
1:53 AM 35.1 °F - 35.1 °F 100% 30.36 in 9.0 mi Calm Calm - N/A   Clear
2:53 AM 39.0 °F 35.7 °F 35.1 °F 86% 30.37 in 9.0 mi ESE 4.6 mph - N/A   Clear
3:53 AM 37.0 °F - 34.0 °F 89% 30.36 in 9.0 mi Calm Calm - N/A   Clear
4:53 AM 33.1 °F 30.0 °F 32.0 °F 96% 30.37 in 9.0 mi NW 3.5 mph - N/A   Clear
5:53 AM 33.1 °F 30.0 °F 30.0 °F 89% 30.37 in 9.0 mi ENE 3.5 mph - N/A   Clear
6:53 AM 32.0 °F 28.7 °F 30.0 °F 92% 30.37 in 9.0 mi NW 3.5 mph - N/A   Partly Cloudy
7:53 AM 32.0 °F - 30.0 °F 92% 30.38 in 9.0 mi Calm Calm - N/A Fog Patches of Fog
8:53 AM 41.0 °F - 37.0 °F 86% 30.39 in 9.0 mi Calm Calm - N/A   Partly Cloudy
9:53 AM 48.9 °F - 39.0 °F 69% 30.40 in 9.0 mi Calm Calm - N/A   Partly Cloudy
10:53 AM 55.9 °F - 39.9 °F 55% 30.38 in 9.0 mi SSW 4.6 mph - N/A   Partly Cloudy
11:53 AM 60.1 °F - 37.0 °F 42% 30.34 in 9.0 mi Calm Calm - N/A   Partly Cloudy
12:53 PM 63.0 °F - 36.0 °F 37% 30.30 in 10.0 mi Calm Calm - N/A   Partly Cloudy
1:53 PM 64.9 °F - 34.0 °F 32% 30.26 in 10.0 mi NNW 3.5 mph - N/A   Partly Cloudy
2:53 PM 68.0 °F - 33.1 °F 27% 30.25 in 10.0 mi Calm Calm - N/A   Clear
3:53 PM 66.9 °F - 30.9 °F 26% 30.24 in 10.0 mi Calm Calm - N/A   Clear
4:53 PM 62.1 °F - 35.1 °F 37% 30.22 in 10.0 mi SSW 4.6 mph - N/A   Clear
5:53 PM 57.0 °F - 35.1 °F 44% 30.22 in 10.0 mi SSW 3.5 mph - N/A   Clear
6:53 PM 50.0 °F - 34.0 °F 54% 30.22 in 10.0 mi Calm Calm - N/A   Clear
7:53 PM 45.0 °F - 32.0 °F 60% 30.23 in 10.0 mi Calm Calm - N/A   Clear
8:53 PM 44.1 °F - 34.0 °F 68% 30.23 in 10.0 mi Calm Calm - N/A   Clear
9:53 PM 43.0 °F - 33.1 °F 68% 30.23 in 10.0 mi Calm Calm - N/A   Clear
10:53 PM 39.9 °F - 34.0 °F 79% 30.23 in 10.0 mi Calm Calm - N/A   Clear
11:53 PM 39.0 °F - 34.0 °F 82% 30.24 in 10.0 mi Calm Calm - N/A   Clear